Location: Sternwarte_Laufen
(47.9344°N, 12.9346°E)
Time: 15:16:13
(UTC+02:00)

ISS - Pass Details

Date: 30 March 2017
Orbit: 399 x 409 km, 51.6° (Epoch: 29 March)

Event Time Altitude Azimuth Distance (km) Brightness Sun altitude
Rises 22:24:38 0° 270° (W) 2,315 0.7 -26.3°
Reaches altitude 10° 22:26:46 10° 277° (W) 1,459 -0.3 -26.6°
Enters shadow 22:28:00 20° 287° (WNW) 996 -1.2 -26.8°
